Weather History for KEAT - March, 2013

Change the Weather History Date:

Sunday, March 17, 2013

  Actual Average Record
Temperature  
Mean Temperature 37 °F 39 °F  
Max Temperature 46 °F 49 °F 70 °F (1972)
Min Temperature 28 °F 30 °F 23 °F (1965)
Degree Days  
Heating Degree Days 28 26  
Month to date heating degree days 414 479  
Since 1 July heating degree days 5277 5678  
Cooling Degree Days 0 0  
Month to date cooling degree days 0 0  
Year to date cooling degree days 0 0  
Moisture  
Dew Point 23 °F    
Average Humidity 58    
Maximum Humidity 93    
Minimum Humidity 29    
Precipitation  
Precipitation T in 0.06 in 0.41 in (2012)
Month to date precipitation 0.33 0.92  
Year to date precipitation 2.48 4.25  
Snow  
Snow T in 0.20 in - ()
Month to date snowfall 1.0 2.8  
Since 1 July snowfall 48.2 49.2  
Snow Depth 0.00 in    
Sea Level Pressure  
Sea Level Pressure 29.95 in    
Wind  
Wind Speed 11 mph (NW)    
Max Wind Speed 26 mph    
Max Gust Speed 33 mph    
Visibility 8 miles    
Events Snow    
T = Trace of Precipitation, MM = Missing Value Source: NWS Daily Summary

Daily Weather History Graph

Daily Weather History Graph

Search for Another Location

Airport or City:

Trip Planner

Search our weather history database for the weather conditions in past years. The results will help you decide how hot, cold, wet, or windy it might be!

Date:

Astronomy

Mar. 17, 2013 Rise Set
Actual Time 7:09 AM PDT 7:09 PM PDT
Civil Twilight 6:38 AM PDT 7:40 PM PDT
Nautical Twilight 6:02 AM PDT 8:16 PM PDT
Astronomical Twilight 5:26 AM PDT 8:53 PM PDT
Moon 10:02 AM PDT (3/17) 12:44 AM PDT (3/17)
Length of Visible Light 13h 01m
Length of Day
12h 00m
Waxing Crescent, 32% of the Moon is Illuminated
Mar 17
Waxing Crescent
Mar 19
First Quarter
Mar 27
Full
Apr 2
Last Quarter
Apr 10
New

Hourly Weather History & Observations

Time (PDT) Temp. Windchill Dew Point Humidity Pressure Visibility Wind Dir Wind Speed Gust Speed Precip Events Conditions
12:51 AM 33.8 °F 27.0 °F 30.2 °F 87% 29.84 in 5.0 mi WNW 8.1 mph - 0.00 in Snow Light Snow
12:55 AM 34.0 °F 27.2 °F 30.9 °F 89% 29.86 in 4.0 mi WNW 8.1 mph - 0.00 in Snow Light Snow
1:03 AM 33.8 °F 26.4 °F 30.2 °F 87% 29.84 in 2.5 mi WNW 9.2 mph - 0.00 in Snow Light Snow
1:13 AM 33.8 °F 30.8 °F 30.2 °F 87% 29.84 in 1.8 mi WSW 3.5 mph - 0.00 in Snow Light Snow
1:21 AM 32.0 °F 28.7 °F 30.2 °F 93% 29.85 in 2.0 mi West 3.5 mph - 0.01 in Snow Light Snow
1:43 AM 33.8 °F 28.6 °F 30.2 °F 87% 29.84 in 3.0 mi NNW 5.8 mph - 0.01 in Snow Light Snow
1:55 AM 34.0 °F 25.5 °F 30.0 °F 85% 29.86 in 9.0 mi NW 11.5 mph - 0.01 in   Overcast
2:55 AM 36.0 °F 27.5 °F 28.9 °F 76% 29.85 in 10.0 mi NW 12.7 mph - 0.03 in   Clear
3:55 AM 36.0 °F 27.5 °F 27.0 °F 70% 29.84 in 10.0 mi North 12.7 mph - N/A   Clear
4:55 AM 36.0 °F 26.7 °F 25.0 °F 64% 29.86 in 10.0 mi NW 15.0 mph - N/A   Clear
5:55 AM 37.0 °F 26.4 °F 23.0 °F 57% 29.89 in 10.0 mi NW 20.7 mph - N/A   Clear
6:55 AM 37.0 °F 25.1 °F 23.0 °F 57% 29.90 in 10.0 mi NW 26.5 mph 33.4 mph N/A   Clear
7:55 AM 37.0 °F 25.9 °F 24.1 °F 59% 29.93 in 10.0 mi NW 23.0 mph - N/A   Clear
8:55 AM 39.0 °F 31.0 °F 26.1 °F 60% 29.97 in 10.0 mi NW 13.8 mph - N/A   Clear
9:55 AM 42.1 °F 33.9 °F 26.1 °F 53% 29.99 in 10.0 mi NW 17.3 mph 27.6 mph N/A   Clear
10:55 AM 45.0 °F 37.1 °F 23.0 °F 42% 30.01 in 10.0 mi NW 19.6 mph 28.8 mph N/A   Clear
11:55 AM 46.9 °F - 19.9 °F 34% 30.01 in 10.0 mi NW 25.3 mph 32.2 mph N/A   Clear
12:55 PM 46.9 °F - 18.0 °F 32% 30.03 in 10.0 mi WNW 16.1 mph 25.3 mph N/A   Partly Cloudy
1:55 PM 46.9 °F - 18.0 °F 32% 30.03 in 10.0 mi NNW 13.8 mph 25.3 mph N/A   Clear
2:55 PM 46.9 °F - 18.0 °F 32% 30.02 in 10.0 mi NW 12.7 mph - N/A   Partly Cloudy
3:55 PM 48.0 °F - 17.1 °F 29% 30.04 in 10.0 mi WNW 12.7 mph - N/A   Mostly Cloudy
4:55 PM 46.0 °F 41.4 °F 16.0 °F 30% 30.04 in 10.0 mi West 9.2 mph - N/A   Scattered Clouds
5:55 PM 46.0 °F 39.3 °F 16.0 °F 30% 30.04 in 10.0 mi West 16.1 mph 25.3 mph N/A   Mostly Cloudy
6:55 PM 43.0 °F 37.7 °F 17.1 °F 35% 30.04 in 10.0 mi WNW 9.2 mph - N/A   Clear
7:55 PM 39.9 °F 37.8 °F 18.0 °F 41% 30.04 in 10.0 mi WNW 3.5 mph - N/A   Clear
8:55 PM 37.0 °F 32.4 °F 19.9 °F 50% 30.04 in 10.0 mi North 5.8 mph - N/A   Clear
9:55 PM 36.0 °F 33.3 °F 21.0 °F 55% 30.05 in 10.0 mi North 3.5 mph - N/A   Clear
10:55 PM 34.0 °F - 21.9 °F 61% 30.06 in 10.0 mi Calm Calm - N/A   Clear
11:55 PM 35.1 °F - 21.0 °F 57% 30.06 in 10.0 mi Calm Calm - N/A   Scattered Clouds